This is the latest recevied weather packets stored in our database for station/object AA8FM-13. If no packets are shown the sender has not sent any weather packets the latest 10 day(s).
| Time | Temp. | Humidity | Pressure | Rain* | Wind** | Luminosity | Snow |
|---|---|---|---|---|---|---|---|
| 1777753231 | 11.11° C | 46% | 1010.8 hPa | 0 mm | - | 217 W/m² | - |
| 1777752926 | 10.56° C | 46% | 1011.1 hPa | 0 mm | - | 164 W/m² | - |
| 1777752623 | 10.56° C | 47% | 1011.1 hPa | 0 mm | - | 175 W/m² | - |
| 1777752319 | 11.11° C | 43% | 1011.2 hPa | 0 mm | - | 171 W/m² | - |
| 1777752017 | 11.67° C | 46% | 1011.1 hPa | 0 mm | - | 185 W/m² | - |
| 1777751715 | 11.11° C | 48% | 1011.2 hPa | 0 mm | - | 280 W/m² | - |
| 1777751410 | 11.11° C | 45% | 1011 hPa | 0 mm | - | 203 W/m² | - |
| 1777751107 | 11.67° C | 46% | 1011.3 hPa | 0 mm | - | 270 W/m² | - |
| 1777750803 | 11.11° C | 49% | 1011.1 hPa | 0 mm | - | 284 W/m² | - |
| 1777750501 | 10.56° C | 47% | 1011.1 hPa | 0 mm | - | 155 W/m² | - |
| 1777750196 | 11.67° C | 48% | 1011.4 hPa | 0 mm | - | 181 W/m² | - |
| 1777749893 | 11.67° C | 44% | 1011.3 hPa | 0 mm | - | 261 W/m² | - |
| 1777749590 | 11.11° C | 49% | 1011.4 hPa | 0 mm | - | 817 W/m² | - |
| 1777749287 | 11.11° C | 48% | 1011.4 hPa | 0 mm | - | 225 W/m² | - |
| 1777748985 | 11.67° C | 48% | 1011.4 hPa | 0 mm | - | 215 W/m² | - |
| 1777748682 | 11.11° C | 48% | 1011.7 hPa | 0 mm | - | 474 W/m² | - |
| 1777748378 | 10.56° C | 49% | 1011.9 hPa | 0 mm | - | 233 W/m² | - |
| 1777748074 | 10.56° C | 48% | 1011.6 hPa | 0 mm | - | 218 W/m² | - |
| 1777747771 | 10.56° C | 50% | 1011.6 hPa | 0 mm | - | 198 W/m² | - |
| 1777747466 | 10.56° C | 48% | 1011.8 hPa | 0 mm | - | 213 W/m² | - |
| 1777747163 | 10.56° C | 47% | 1011.6 hPa | 0 mm | - | 196 W/m² | - |
| 1777746860 | 10.56° C | 46% | 1011.7 hPa | 0 mm | - | 197 W/m² | - |
| 1777746555 | 11.11° C | 47% | 1011.6 hPa | 0 mm | - | 196 W/m² | - |
| 1777746251 | 11.67° C | 45% | 1011.6 hPa | 0 mm | - | 229 W/m² | - |
| 1777745947 | 11.67° C | 46% | 1011.5 hPa | 0 mm | - | 744 W/m² | - |
* Rain latest hour (hover to see other rain measurements)
** Current wind speed in m/s (hover to see current wind gust speed)